Weather Roundup
Issued by NWS

Home | Current Version | Previous Version | Graphics & Text | Print | Product List | Glossary Off
Versions: 1 2 3 4 5 6 7 8 9 10 11 12 13 14 15 16 17 18 19 20 21 22 23 24 25 26 27 28 29 30 31 32 33 34 35 36 37 38 39 40 41 42 43 44 45 46 47 48 49 50

000
NZUS93 KARX 260959
HRRWXR

CURRENT HOURLY OBSERVATIONS ACROSS
MUCH OF THE UPPER MISSISSIPPI VALLEY
NATIONAL WEATHER SERVICE LA CROSSE WI
400 AM CST THU FEB 26 2015


...SOUTHEAST MINNESOTA...


CITY           SKY/WX    TMP DP  RH WIND       PRES   REMARKS
ROCHESTER      CLEAR     -4 -13  65 N12       30.24R WCI -22
ROCHESTER/MAYO FAIR      -1 -11  61 NW5       30.26R WCI -11
WINONA         CLEAR      0  -8  71 NW3       30.30R
AUSTIN         CLEAR     -2 -11  65 N9        30.25R WCI -18
ALBERT LEA     CLEAR     -2 -11  65 N7        30.27R WCI -16
DODGE CENTER   PTCLDY    -4 -11  71 N9        30.24S WCI -20
PRESTON        CLEAR     -4 -12  67 N7        30.23R WCI -17
OWATONNA       CLEAR     -8 -15  71 N8        30.29R WCI -23
FARIBAULT      CLEAR     -6 -13  71 NW7       30.31R WCI -20
$$

...ELSEWHERE IN MINNESOTA...


CITY           SKY/WX    TMP DP  RH WIND       PRES   REMARKS
MINNEAPOLIS    CLEAR      0 -12  57 N13       30.35R WCI -18
INTNL FALLS    PTCLDY   -24 -31  69 CALM      30.34R
DULUTH         PTCLDY    -9 -17  68 N7        30.26R WCI -24
RED WING       CLEAR      0 -15  50 N6        30.32R WCI -12
REDWOOD FALLS  CLEAR     -6 -12  75 NW10      30.39R WCI -24
MANKATO        CLEAR     -6 -15  65 NW8       30.33R WCI -21
WORTHINGTON    PTCLDY    28 -15  14 N13       30.33R WCI  18
FAIRMONT       CLEAR     -4  -9  77 NW15G21   30.30R WCI -25
$$

...SOUTHWEST WISCONSIN...


CITY           SKY/WX    TMP DP  RH WIND       PRES   REMARKS
LA CROSSE      CLEAR     -1 -10  65 NW9       30.27R WCI -16
PRAIRIE DU CHI PTCLDY     7  -7  51 NW8       30.21R WCI  -5
BOSCOBEL       CLEAR      7  -6  55 N7        30.22R WCI  -5
LONE ROCK      NOT AVBL
PLATTEVILLE    PTCLDY     2  -6  71 N9        30.14R WCI -13
FORT MC COY    CLEAR      0  -8  66 N5        30.24R WCI -10
VIROQUA        FAIR       1  -8  66 N7        30.16R WCI -12
WIS DELLS      NOT AVBL
$$

...ELSEWHERE IN WISCONSIN...


CITY           SKY/WX    TMP DP  RH WIND       PRES   REMARKS
MILWAUKEE      LGT SNOW  12   7  80 N12       30.11R WCI  -2
MADISON        PTCLDY     8  -2  63 NE14      30.15R WCI  -8
GREEN BAY      CLEAR     -1  -8  72 N10       30.22S WCI -17
EAU CLAIRE     NOT AVBL
BLACK RVR FLS  FAIR       0 -10  63 N3        30.25R
MEDFORD        CLEAR    -12 -17  82 N5        30.17S WCI -24
WAUSAU         CLEAR     -5 -10  79 N6        30.19R WCI -18
WIS RAPIDS     CLEAR     -2 -11  65 NE10      30.22R WCI -19
MARSHFIELD     PTCLDY    -2 -10  69 N7        30.19R WCI -15
RICE LAKE      CLEAR     -4 -13  66 N5        30.29R WCI -15
$$

...NORTHEAST IOWA...


CITY           SKY/WX    TMP DP  RH WIND       PRES   REMARKS
DECORAH        CLEAR      1  -9  60 NW8       30.19R WCI -12
MASON CITY     CLEAR     -6 -12  75 NW13      30.27R WCI -25
CHARLES CITY   CLEAR     -6 -15  65 N10       30.24R WCI -23
OELWEIN        CLOUDY     1  -8  66 N13       30.19R WCI -16
$$

...ELSEWHERE IN IOWA...


CITY           SKY/WX    TMP DP  RH WIND       PRES   REMARKS
DES MOINES     MOCLDY     7  -3  64 N17G24    30.26R WCI -12
IOWA CITY      CLOUDY    11   1  64 N14       30.20R WCI  -5
FORT DODGE     CLEAR     -2  -9  71 N10G16    30.30R WCI -19
$$

...NORTHERN ILLINOIS...


CITY           SKY/WX    TMP DP  RH WIND       PRES   REMARKS
CHICAGO-OHARE  LGT SNOW  15  12  88 N10       30.06R FOG     WCI   2
CHICAGO-MIDWAY LGT SNOW  21  15  78 N16       30.05R VSB 1   WCI   7
MOLINE         CLOUDY    14   8  77 N8        30.13R HAZE    WCI   3
ROCKFORD       LGT SNOW  13   6  74 N15       30.12R WCI  -3
PEORIA         LGT SNOW  19  13  77 N10G17    30.06R WCI   7
$$

NOTE: "FAIR" INDICATES FEW OR NO CLOUDS BELOW 12,000 FEET WITH NO
SIGNIFICANT WEATHER AND/OR OBSTRUCTIONS TO VISIBILITY. WIND
SPEEDS ARE IN MILES-PER-HOUR.



USA.gov is the U.S. government's official web portal to all federal, state and local government web resources and services.